LEDGEWOOD Weather Reports


Display with metric or nautical units.
time (UTC)temp
F
wind
direction
speed
MPH
gust
MPH
rain 1hr
in
rain 24hr
in
rain mn
in
humidity
%
barometer
mb
20260507034600 53 183 2.0 6.0 0.01 0.40 0.40 92 1004.6
20260507033101 55 275 2.0 6.0 0.01 0.40 0.40 94 1004.7
20260507031600 56 229 1.0 6.0 0.00 0.39 0.39 93 1004.7
20260507024609 58 305 1.0 7.0 0.00 0.39 0.39 95 1004.1
20260507023101 59 11 2.0 4.0 0.00 0.39 0.39 96 1003.8
20260507021608 59 0 0.0 3.0 0.00 0.39 0.39 96 1003.5
20260507020114 59 0 0.0 3.0 0.00 0.39 0.39 96 1003.6
20260507014606 59 0 0.0 6.0 0.00 0.39 0.39 96 1003.9
20260507013101 59 0 0.0 2.0 0.00 0.39 0.39 96 1003.9
20260507011601 59 0 0.0 2.0 0.00 0.39 0.39 96 1003.9
20260507004608 59 207 0.0 1.0 0.00 0.39 0.39 96 1003.9
20260507003100 59 0 0.0 3.0 0.00 0.39 0.39 96 1003.9
20260507001601 59 240 0.0 3.0 0.01 0.39 0.39 96 1003.8
20260507000101 59 0 1.0 6.0 0.01 0.39 0.39 96 1003.7
20260506234559 59 126 1.0 4.0 0.01 0.39 0.39 95 1003.5
20260506233112 59 91 0.0 4.0 0.01 0.39 0.39 95 1003.4
20260506231602 59 0 0.0 3.0 0.00 0.38 0.38 95 1003.7
20260506230059 59 113 1.0 3.0 0.00 0.38 0.38 95 1003.7
20260506224600 60 94 1.0 8.0 0.04 0.38 0.38 95 1003.7
20260506223059 59 135 1.0 5.0 0.06 0.38 0.38 95 1003.9
20260506221612 60 265 1.0 4.0 0.09 0.38 0.38 95 1004.0
20260506220100 59 257 1.0 4.0 0.12 0.38 0.38 95 1004.2
20260506214559 60 197 2.0 5.0 0.10 0.34 0.34 95 1004.4
20260506213120 60 9 1.0 5.0 0.10 0.32 0.32 94 1004.5
20260506211558 61 177 2.0 5.0 0.12 0.29 0.29 95 1004.6
20260506210101 61 154 0.0 4.0 0.11 0.26 0.26 95 1004.5
20260506204556 61 136 0.0 4.0 0.09 0.24 0.24 95 1004.7
20260506203100 62 132 1.0 6.0 0.08 0.22 0.22 95 1004.7
20260506201559 62 135 0.0 3.0 0.04 0.17 0.17 95 1004.7
20260506200059 62 140 0.0 1.0 0.04 0.15 0.15 95 1004.8
20260506194601 62 128 0.0 1.0 0.06 0.15 0.15 94 1004.6
20260506193100 62 0 0.0 1.0 0.07 0.14 0.14 94 1004.5
20260506191557 62 187 0.0 2.0 0.09 0.13 0.13 93 1004.9
20260506190101 62 0 0.0 1.0 0.11 0.11 0.11 92 1005.2
20260506184603 62 271 0.0 1.0 0.09 0.09 0.09 92 1005.5
20260506183105 62 225 0.0 2.0 0.07 0.07 0.07 91 1005.4
20260506181623 64 0 0.0 4.0 0.04 0.04 0.04 88 1005.4
20260506180058 68 269 2.0 6.0 0.00 0.00 0.00 73 1005.6
20260506174558 71 307 2.0 12.0 0.00 0.00 0.00 60 1004.9
20260506173108 72 232 4.0 12.0 0.00 0.00 0.00 58 1005.0
20260506171605 73 219 3.0 11.0 0.00 0.00 0.00 58 1005.2
20260506170109 73 131 3.0 12.0 0.00 0.00 0.00 59 1005.4
20260506164614 72 227 3.0 10.0 0.00 0.00 0.00 61 1005.6
20260506163112 72 199 2.0 11.0 0.00 0.00 0.00 61 1005.9
20260506161601 72 228 2.0 11.0 0.00 0.00 0.00 61 1006.3
20260506160110 71 272 1.0 8.0 0.00 0.00 0.00 62 1006.7
20260506154604 71 112 3.0 11.0 0.00 0.00 0.00 62 1006.8
20260506153115 72 257 3.0 9.0 0.00 0.00 0.00 61 1007.1
20260506151610 71 145 2.0 6.0 0.00 0.00 0.00 65 1007.2
20260506144613 68 138 2.0 8.0 0.00 0.00 0.00 68 1007.2
20260506143057 69 136 2.0 11.0 0.00 0.00 0.00 69 1007.3
20260506141558 68 0 1.0 7.0 0.00 0.00 0.00 70 1007.0
20260506140105 67 210 2.0 10.0 0.00 0.00 0.00 71 1007.3
20260506134558 67 3 1.0 6.0 0.00 0.00 0.00 72 1007.3
20260506133058 66 233 2.0 8.0 0.00 0.00 0.00 72 1007.5
20260506131559 66 215 1.0 6.0 0.00 0.00 0.00 73 1007.4
20260506130103 67 60 2.0 5.0 0.00 0.00 0.00 72 1007.5
20260506124608 65 238 1.0 4.0 0.00 0.00 0.00 74 1007.3
20260506123101 65 179 2.0 6.0 0.00 0.00 0.00 74 1007.3
20260506121559 64 234 1.0 7.0 0.00 0.00 0.00 75 1007.6
20260506120100 63 217 1.0 5.0 0.00 0.00 0.00 77 1007.8
20260506114607 62 229 0.0 5.0 0.00 0.00 0.00 78 1007.9
20260506113059 62 203 0.0 4.0 0.00 0.00 0.00 78 1008.1
20260506111558 61 0 0.0 2.0 0.00 0.00 0.00 79 1008.1
20260506104606 60 0 0.0 4.0 0.00 0.00 0.00 81 1008.1
20260506103059 60 0 0.0 2.0 0.00 0.00 0.00 81 1008.1
20260506101559 59 220 0.0 2.0 0.00 0.00 0.00 81 1008.0
20260506100058 59 0 0.0 5.0 0.00 0.00 0.00 81 1008.3
20260506094559 59 0 0.0 5.0 0.00 0.00 0.00 81 1008.0
20260506093059 59 0 0.0 3.0 0.00 0.00 0.00 80 1008.1
20260506091601 59 0 0.0 3.0 0.00 0.00 0.00 80 1007.9
20260506090104 59 0 0.0 3.0 0.00 0.00 0.00 80 1007.9
20260506084606 59 0 0.0 3.0 0.00 0.00 0.00 78 1007.9
20260506083059 59 0 0.0 2.0 0.00 0.00 0.00 78 1007.9
20260506081600 59 101 0.0 1.0 0.00 0.00 0.00 78 1007.9
20260506080108 59 0 0.0 1.0 0.00 0.00 0.00 76 1007.9
20260506073058 60 0 0.0 3.0 0.00 0.00 0.00 74 1007.6
20260506071606 61 121 0.0 2.0 0.00 0.00 0.00 73 1007.4
20260506061557 61 0 0.0 2.0 0.00 0.00 0.00 71 1007.4
20260506060105 61 127 0.0 2.0 0.00 0.00 0.00 71 1007.5
20260506050107 63 0 1.0 2.0 0.00 0.00 0.00 66 1007.8
20260506044600 64 226 0.0 4.0 0.00 0.00 0.00 65 1007.9
20260506043101 64 0 1.0 4.0 0.00 0.00 0.00 64 1007.8
20260506041605 65 153 1.0 7.0 0.00 0.00 0.00 63 1007.7